Location: Sungai Laei
(2.6000°N, 113.7167°E)
Time: 11:18:45
(UTC+00:00)

ARIANE 42L R/B - Pass Details

Date: 22 May 2022
Orbit: 482 x 36514 km, 4.1° (Epoch: 06 July)

Event Time Altitude Azimuth Distance (km) Brightness Sun altitude
Rises 12:03:36 0° 270° (W) 12,484 10.3 -22.7°
Reaches altitude 10° 12:11:24 10° 269° (W) 13,497 10.2 -24.5°
Drops below altitude 10° 18:41:17 10° 265° (W) 37,900 11.2 -48.8°
Enters shadow 21:05:01 - 265° (W) 21,162 9.7 -17.0°
Exits shadow 21:28:38 - 265° (W) 15,554 9.0 -11.5°
Maximum altitude 22:09:15 81° 178° (S) 1,349 4.3 -2.0°
Sets 22:15:01 0° 89° (E) 2,852 7.6 -0.7°
